{"data":{"norad_id":87304,"epoch":"2026-09-17T08:38:40.056576Z","epoch_age_seconds":285679,"freshness":"STALE","line1":"1 87304U          26260.36018584  .00000849  00000+0  12709-3 0  9995","line2":"2 87304  74.0178 135.0693 0016738  30.0900 330.1232 14.76314518687583","mean_motion":14.76314518,"eccentricity":0.0016738,"inclination_deg":74.0178,"raan_deg":135.0693,"arg_perigee_deg":30.09,"mean_anomaly_deg":330.1232,"bstar":0.00012709,"rev_number":68758,"period_min":97.540190958144,"perigee_km":629.23300410882,"apogee_km":652.73020555035,"semimajor_km":7019.1186048296,"source":"CELESTRAK","updated_at":"2026-09-20T09:00:32.453810Z"}}